Tracking 22458 objects as of 2-Mar-2021
HD Live streaming from Space Station
objects crossing your sky now

DMSP 5D-2 F12 DEB

Track DMSP 5D-2 F12 DEB now!
10-day predictions


NORAD ID: 23250
Int'l Code: 1994-057D
Perigee: 729.9 km
Apogee: 742.5 km
Inclination: 98.2 °
Period: 99.4 minutes
Semi major axis: 7107 km
RCS: 0.0787 m2 (small)
Launch date: August 29, 1994
Source: United States (US)
Launch site: AIR FORCE WESTERN TEST RANGE (AFWTR)

Note: This is SATELLITE DEBRIS
aabbcc
Your satellite tracking list
Your tracking list is empty




NASA's NSSDC Master Catalog

Two Line Element Set (TLE):
1 23250U 94057D   21061.40660425  .00000905  00000-0  25012-3 0  9991
2 23250  98.2052 104.2541 0008883 116.1532 255.6369 14.48954095385341
Source of the keplerian elements: AFSPC